Change the Weather History Date:

Monday, October 20, 2014

  Actual Average Record
Temperature  
Mean Temperature 52 °F -  
Max Temperature 64 °F 56 °F 80 °F (1953)
Min Temperature 41 °F 34 °F 18 °F (1952)
Degree Days  
Heating Degree Days 12    
Growing Degree Days 2 (Base 50)    
Moisture  
Dew Point 39 °F    
Average Humidity 66    
Maximum Humidity 87    
Minimum Humidity 34    
Precipitation  
Precipitation 0.00 in - - ()
Sea Level Pressure  
Sea Level Pressure 30.02 in    
Wind  
Wind Speed 7 mph (NW)    
Max Wind Speed 15 mph    
Max Gust Speed 22 mph    
Visibility 10 miles    
Events      
Averages and records for this station are not official NWS values.
T = Trace of Precipitation, MM = Missing Value Source: NWS Daily Summary

Daily Weather History Graph

Daily Weather History Graph

Search for Another Location

Airport or City:

Trip Planner

Search our weather history database for the weather conditions in past years. The results will help you decide how hot, cold, wet, or windy it might be!

Date:

Astronomy

Oct. 20, 2014 Rise Set
Actual Time 7:44 AM CDT 6:26 PM CDT
Civil Twilight 7:14 AM CDT 6:57 PM CDT
Nautical Twilight 6:39 AM CDT 7:31 PM CDT
Astronomical Twilight 6:05 AM CDT 8:05 PM CDT
Moon 4:24 AM CDT (10/20) 4:57 PM CDT (10/20)
Length of Visible Light 11h 42m
Length of Day
10h 42m
Waning Crescent, 10% of the Moon is Illuminated
Oct 20
Waning Crescent
Oct 23
New
Oct 30
First Quarter
Nov 6
Full
Nov 14
Last Quarter

Hourly Weather History & Observations

Time (CDT) Temp. Windchill Dew Point Humidity Pressure Visibility Wind Dir Wind Speed Gust Speed Precip Events Conditions
12:13 AM 46.4 °F 44.3 °F 41.0 °F 81% 29.93 in 10.0 mi WNW 4.6 mph - N/A   Clear
12:33 AM 46.4 °F 43.5 °F 41.0 °F 81% 29.93 in 10.0 mi NW 5.8 mph - N/A   Clear
12:53 AM 46.4 °F 42.9 °F 39.2 °F 76% 29.93 in 10.0 mi WNW 6.9 mph - N/A   Clear
1:13 AM 46.4 °F 42.4 °F 41.0 °F 81% 29.94 in 10.0 mi West 8.1 mph - N/A   Clear
1:33 AM 44.6 °F 40.7 °F 39.2 °F 81% 29.94 in 10.0 mi West 6.9 mph - N/A   Clear
1:53 AM 44.6 °F 40.7 °F 39.2 °F 81% 29.94 in 10.0 mi West 6.9 mph - N/A   Clear
2:13 AM 44.6 °F 40.7 °F 39.2 °F 81% 29.95 in 10.0 mi West 6.9 mph - N/A   Clear
2:33 AM 44.6 °F 40.7 °F 39.2 °F 81% 29.95 in 10.0 mi West 6.9 mph - N/A   Clear
2:53 AM 44.6 °F 40.7 °F 39.2 °F 81% 29.95 in 10.0 mi West 6.9 mph - N/A   Clear
3:13 AM 44.6 °F 40.2 °F 39.2 °F 81% 29.95 in 10.0 mi West 8.1 mph - N/A   Clear
3:33 AM 44.6 °F 39.7 °F 39.2 °F 81% 29.95 in 10.0 mi West 9.2 mph - N/A   Clear
3:53 AM 44.6 °F 39.7 °F 39.2 °F 81% 29.96 in 10.0 mi West 9.2 mph - N/A   Clear
4:13 AM 44.6 °F 40.2 °F 39.2 °F 81% 29.96 in 10.0 mi West 8.1 mph - N/A   Clear
4:33 AM 42.8 °F 37.5 °F 39.2 °F 87% 29.97 in 10.0 mi WNW 9.2 mph - N/A   Clear
4:53 AM 42.8 °F 38.0 °F 39.2 °F 87% 29.97 in 10.0 mi West 8.1 mph - N/A   Clear
5:13 AM 42.8 °F 38.0 °F 37.4 °F 81% 29.97 in 10.0 mi WNW 8.1 mph - N/A   Clear
5:33 AM 42.8 °F 39.3 °F 37.4 °F 81% 29.98 in 10.0 mi NW 5.8 mph - N/A   Clear
5:53 AM 42.8 °F 40.1 °F 37.4 °F 81% 29.99 in 10.0 mi NW 4.6 mph - N/A   Clear
6:13 AM 41.0 °F 37.1 °F 37.4 °F 87% 29.99 in 10.0 mi NW 5.8 mph - N/A   Clear
6:33 AM 42.8 °F 41.1 °F 37.4 °F 81% 30.00 in 10.0 mi WNW 3.5 mph - N/A   Clear
6:53 AM 42.8 °F 40.1 °F 37.4 °F 81% 30.00 in 10.0 mi NW 4.6 mph - N/A   Clear
7:13 AM 42.8 °F 40.1 °F 37.4 °F 81% 30.01 in 10.0 mi NW 4.6 mph - N/A   Clear
7:33 AM 42.8 °F 40.1 °F 37.4 °F 81% 30.01 in 10.0 mi NW 4.6 mph - N/A   Clear
7:53 AM 41.0 °F 37.1 °F 37.4 °F 87% 30.02 in 10.0 mi WNW 5.8 mph - N/A   Clear
8:13 AM 42.8 °F 38.6 °F 39.2 °F 87% 30.03 in 10.0 mi WNW 6.9 mph - N/A   Clear
8:33 AM 42.8 °F 39.3 °F 39.2 °F 87% 30.03 in 10.0 mi West 5.8 mph - N/A   Clear
8:53 AM 46.4 °F 43.5 °F 41.0 °F 81% 30.04 in 10.0 mi NW 5.8 mph - N/A   Clear
9:13 AM 48.2 °F - 42.8 °F 82% 30.04 in 10.0 mi NW 5.8 mph - N/A   Clear
9:33 AM 50.0 °F - 42.8 °F 76% 30.04 in 10.0 mi NW 6.9 mph - N/A   Clear
9:53 AM 51.8 °F - 42.8 °F 71% 30.05 in 10.0 mi NNW 8.1 mph - N/A   Clear
10:13 AM 53.6 °F - 42.8 °F 67% 30.04 in 10.0 mi NW 9.2 mph - N/A   Clear
10:33 AM 55.4 °F - 44.6 °F 67% 30.05 in 10.0 mi NW 9.2 mph - N/A   Clear
10:53 AM 57.2 °F - 44.6 °F 63% 30.05 in 10.0 mi NNW 9.2 mph - N/A   Clear
11:13 AM 57.2 °F - 44.6 °F 63% 30.05 in 10.0 mi NW 9.2 mph - N/A   Clear
11:33 AM 57.2 °F - 42.8 °F 59% 30.04 in 10.0 mi NW 11.5 mph 16.1 mph N/A   Clear
11:53 AM 60.8 °F - 42.8 °F 52% 30.05 in 10.0 mi WNW 11.5 mph 18.4 mph N/A   Clear
12:13 PM 60.8 °F - 42.8 °F 52% 30.05 in 10.0 mi WNW 13.8 mph 18.4 mph N/A   Clear
12:33 PM 60.8 °F - 42.8 °F 52% 30.05 in 10.0 mi NW 10.4 mph 16.1 mph N/A   Clear
12:53 PM 60.8 °F - 44.6 °F 55% 30.04 in 10.0 mi NW 10.4 mph - N/A   Clear
1:13 PM 62.6 °F - 42.8 °F 48% 30.03 in 10.0 mi NNW 12.7 mph - N/A   Clear
1:33 PM 62.6 °F - 42.8 °F 48% 30.03 in 10.0 mi NW 11.5 mph 18.4 mph N/A   Clear
1:53 PM 62.6 °F - 42.8 °F 48% 30.03 in 10.0 mi NW 15.0 mph 21.9 mph N/A   Clear
2:13 PM 62.6 °F - 39.2 °F 42% 30.03 in 10.0 mi WNW 12.7 mph 18.4 mph N/A   Clear
2:33 PM 62.6 °F - 39.2 °F 42% 30.02 in 10.0 mi NW 10.4 mph - N/A   Clear
2:53 PM 64.4 °F - 39.2 °F 40% 30.02 in 10.0 mi WNW 13.8 mph 17.3 mph N/A   Clear
3:13 PM 64.4 °F - 39.2 °F 40% 30.02 in 10.0 mi NW 11.5 mph 17.3 mph N/A   Clear
3:33 PM 64.4 °F - 37.4 °F 37% 30.02 in 10.0 mi NW 12.7 mph - N/A   Clear
3:53 PM 64.4 °F - 37.4 °F 37% 30.02 in 10.0 mi WNW 12.7 mph - N/A   Clear
4:13 PM 64.4 °F - 37.4 °F 37% 30.02 in 10.0 mi NW 10.4 mph 17.3 mph N/A   Clear
4:33 PM 64.4 °F - 37.4 °F 37% 30.02 in 10.0 mi NW 9.2 mph - N/A   Clear
4:53 PM 62.6 °F - 35.6 °F 37% 30.03 in 10.0 mi NW 11.5 mph - N/A   Clear
5:13 PM 62.6 °F - 33.8 °F 34% 30.03 in 10.0 mi NNW 10.4 mph - N/A   Clear
5:33 PM 62.6 °F - 33.8 °F 34% 30.04 in 10.0 mi NNW 8.1 mph - N/A   Clear
5:53 PM 60.8 °F - 33.8 °F 36% 30.03 in 10.0 mi NW 6.9 mph - N/A   Clear
6:13 PM 57.2 °F - 35.6 °F 44% 30.04 in 10.0 mi NNW 4.6 mph - N/A   Clear
6:32 PM 55.4 °F - 35.6 °F 47% 30.04 in 10.0 mi NNW 4.6 mph - N/A   Clear
6:53 PM 51.8 °F - 35.6 °F 54% 30.04 in 10.0 mi NNW 4.6 mph - N/A   Clear
7:13 PM 51.8 °F - 35.6 °F 54% 30.05 in 10.0 mi NNW 3.5 mph - N/A   Clear
7:33 PM 51.8 °F - 35.6 °F 54% 30.05 in 10.0 mi NNW 4.6 mph - N/A   Clear
7:53 PM 51.8 °F - 37.4 °F 58% 30.05 in 10.0 mi North 4.6 mph - N/A   Clear
8:13 PM 51.8 °F - 37.4 °F 58% 30.05 in 10.0 mi North 4.6 mph - N/A   Clear
8:33 PM 50.0 °F - 37.4 °F 62% 30.05 in 10.0 mi NNE 4.6 mph - N/A   Clear
8:53 PM 50.0 °F - 37.4 °F 62% 30.05 in 10.0 mi North 3.5 mph - N/A   Clear
9:13 PM 50.0 °F - 37.4 °F 62% 30.06 in 10.0 mi North 4.6 mph - N/A   Clear
9:33 PM 48.2 °F - 37.4 °F 66% 30.06 in 10.0 mi NNE 5.8 mph - N/A   Clear
9:53 PM 46.4 °F 43.5 °F 37.4 °F 71% 30.06 in 10.0 mi NNE 5.8 mph - N/A   Clear
10:13 PM 46.4 °F 42.9 °F 39.2 °F 76% 30.07 in 10.0 mi NE 6.9 mph - N/A   Clear
10:33 PM 42.8 °F 38.6 °F 35.6 °F 76% 30.07 in 10.0 mi ENE 6.9 mph - N/A   Clear
10:53 PM 42.8 °F 38.6 °F 37.4 °F 81% 30.07 in 10.0 mi East 6.9 mph - N/A   Clear
11:13 PM 42.8 °F 38.0 °F 37.4 °F 81% 30.08 in 10.0 mi East 8.1 mph - N/A   Clear
11:33 PM 42.8 °F 38.0 °F 37.4 °F 81% 30.08 in 10.0 mi ENE 8.1 mph - N/A   Clear
11:53 PM 42.8 °F 38.0 °F 37.4 °F 81% 30.09 in 10.0 mi ENE 8.1 mph - N/A   Clear